GPMPP EGKA-EGKA

Flight info

Callsign GPMPP
Flight time 0h 8m
Altitude 2000
Route LOCAL CIRCUITS
Aircraft C172/L-SFG/C

Departure

Time 2026-05-07 12:18
Airport Brighton City Airport (EGKA)

Arrival

Time 2026-05-07 12:27
Airport Brighton City Airport (EGKA)
Time Latitude Longitude Altitude Speed Heading
2026-05-07 10:55 50.83451 -0.28910 9 ft 0 kts 255°
2026-05-07 12:08 50.83450 -0.28917 9 ft 0 kts 253°
2026-05-07 12:08 50.83450 -0.28943 9 ft 4 kts 285°
2026-05-07 12:09 50.83472 -0.28973 9 ft 4 kts
2026-05-07 12:09 50.83491 -0.28947 9 ft 3 kts 69°
2026-05-07 12:09 50.83496 -0.28915 9 ft 2 kts 75°
2026-05-07 12:09 50.83501 -0.28887 9 ft 2 kts 72°
2026-05-07 12:10 50.83511 -0.28854 9 ft 3 kts 59°
2026-05-07 12:10 50.83531 -0.28820 9 ft 4 kts 32°
2026-05-07 12:10 50.83565 -0.28809 9 ft 5 kts 356°
2026-05-07 12:10 50.83605 -0.28829 9 ft 6 kts 331°
2026-05-07 12:11 50.83637 -0.28881 9 ft 7 kts 305°
2026-05-07 12:11 50.83667 -0.28951 9 ft 8 kts 305°
2026-05-07 12:11 50.83700 -0.29028 9 ft 9 kts 304°
2026-05-07 12:11 50.83738 -0.29113 9 ft 9 kts 305°
2026-05-07 12:12 50.83778 -0.29207 9 ft 10 kts 306°
2026-05-07 12:12 50.83817 -0.29288 9 ft 7 kts 311°
2026-05-07 12:12 50.83848 -0.29324 9 ft 3 kts 339°
2026-05-07 12:12 50.83864 -0.29331 9 ft 1 kts 351°
2026-05-07 12:13 50.83884 -0.29334 9 ft 4 kts 359°
2026-05-07 12:13 50.83915 -0.29335 9 ft 0 kts 335°
2026-05-07 12:13 50.83917 -0.29339 9 ft 0 kts 292°
2026-05-07 12:13 50.83916 -0.29341 9 ft 0 kts 208°
2026-05-07 12:15 50.83915 -0.29340 9 ft 0 kts 120°
2026-05-07 12:16 50.83916 -0.29337 9 ft 0 kts 22°
2026-05-07 12:16 50.83925 -0.29333 9 ft 2 kts 19°
2026-05-07 12:16 50.83946 -0.29327 9 ft 4 kts
2026-05-07 12:16 50.83972 -0.29356 9 ft 5 kts 298°
2026-05-07 12:17 50.83988 -0.29419 9 ft 5 kts 285°
2026-05-07 12:17 50.83981 -0.29459 9 ft 2 kts 219°
2026-05-07 12:17 50.83971 -0.29469 9 ft 1 kts 204°
2026-05-07 12:17 50.83907 -0.29509 9 ft 34 kts 198°
2026-05-07 12:18 50.83528 -0.29749 52 ft 73 kts 198°
2026-05-07 12:18 50.83104 -0.30232 285 ft 76 kts 221°
2026-05-07 12:18 50.82715 -0.30781 494 ft 77 kts 204°
2026-05-07 12:18 50.82254 -0.31038 738 ft 68 kts 155°
2026-05-07 12:19 50.81995 -0.30360 899 ft 76 kts 104°
2026-05-07 12:19 50.81912 -0.29502 986 ft 83 kts 104°
2026-05-07 12:19 50.81837 -0.28624 1047 ft 83 kts 104°
2026-05-07 12:19 50.81968 -0.27800 1105 ft 85 kts 52°
2026-05-07 12:20 50.82512 -0.27426 1137 ft 87 kts 18°
2026-05-07 12:20 50.83102 -0.27208 1152 ft 85 kts 17°
2026-05-07 12:20 50.83699 -0.27017 1107 ft 87 kts 16°
2026-05-07 12:20 50.84287 -0.26827 1101 ft 84 kts 18°
2026-05-07 12:21 50.84866 -0.26593 1049 ft 85 kts 15°
2026-05-07 12:21 50.85450 -0.26811 867 ft 92 kts 328°
2026-05-07 12:21 50.85807 -0.27617 719 ft 89 kts 285°
2026-05-07 12:21 50.85793 -0.28571 534 ft 88 kts 243°
2026-05-07 12:22 50.85309 -0.28980 352 ft 79 kts 179°
2026-05-07 12:22 50.84812 -0.29072 323 ft 67 kts 191°
2026-05-07 12:22 50.84347 -0.29250 191 ft 70 kts 191°
2026-05-07 12:22 50.83865 -0.29550 29 ft 75 kts 199°
2026-05-07 12:23 50.83415 -0.29802 131 ft 64 kts 195°
2026-05-07 12:23 50.82971 -0.30115 283 ft 71 kts 200°
2026-05-07 12:23 50.82475 -0.30438 448 ft 77 kts 195°
2026-05-07 12:23 50.81975 -0.30436 606 ft 81 kts 141°
2026-05-07 12:24 50.81871 -0.29579 833 ft 79 kts 96°
2026-05-07 12:24 50.81868 -0.28758 992 ft 74 kts 96°
2026-05-07 12:24 50.81892 -0.27939 1000 ft 74 kts 78°
2026-05-07 12:24 50.82334 -0.27444 944 ft 85 kts 23°
2026-05-07 12:25 50.82881 -0.27087 928 ft 82 kts 38°
2026-05-07 12:25 50.83443 -0.26817 893 ft 86 kts 15°
2026-05-07 12:25 50.84015 -0.26665 902 ft 81 kts 13°
2026-05-07 12:25 50.84555 -0.26532 929 ft 74 kts 14°
2026-05-07 12:26 50.84978 -0.26800 925 ft 71 kts 301°
2026-05-07 12:26 50.85101 -0.27564 860 ft 69 kts 277°
2026-05-07 12:26 50.84917 -0.28295 641 ft 79 kts 236°
2026-05-07 12:26 50.84604 -0.28956 421 ft 73 kts 223°
2026-05-07 12:27 50.84183 -0.29344 143 ft 69 kts 201°
2026-05-07 12:27 50.83781 -0.29593 9 ft 47 kts 188°
2026-05-07 12:27 50.83432 -0.29724 45 ft 65 kts 187°
2026-05-07 12:27 50.83014 -0.30079 243 ft 71 kts 210°
2026-05-07 12:28 50.82602 -0.30588 423 ft 79 kts 219°
2026-05-07 12:28 50.82202 -0.31035 669 ft 72 kts 180°
2026-05-07 12:28 50.81941 -0.30358 748 ft 86 kts 97°
2026-05-07 12:28 50.81900 -0.29441 1037 ft 74 kts 89°
2026-05-07 12:29 50.81882 -0.28563 980 ft 82 kts 99°
2026-05-07 12:29 50.82029 -0.27727 1001 ft 84 kts 60°
2026-05-07 12:29 50.82528 -0.27239 1008 ft 87 kts 19°
2026-05-07 12:29 50.83111 -0.27012 1029 ft 86 kts 17°
2026-05-07 12:30 50.83699 -0.26827 1051 ft 86 kts 13°
2026-05-07 12:30 50.84272 -0.26703 1072 ft 79 kts 13°
2026-05-07 12:30 50.84810 -0.26774 1006 ft 86 kts 325°
2026-05-07 12:30 50.85053 -0.27671 841 ft 88 kts 279°
2026-05-07 12:31 50.84977 -0.28508 669 ft 78 kts 234°
2026-05-07 12:31 50.84601 -0.29084 385 ft 73 kts 206°
2026-05-07 12:31 50.84154 -0.29375 130 ft 67 kts 204°
2026-05-07 12:31 50.83767 -0.29579 9 ft 46 kts 202°
2026-05-07 12:32 50.83554 -0.29729 9 ft 25 kts 198°
2026-05-07 12:32 50.83419 -0.29816 9 ft 16 kts 198°
2026-05-07 12:32 50.83330 -0.29869 9 ft 10 kts 201°
2026-05-07 12:32 50.83276 -0.29902 9 ft 6 kts 194°
2026-05-07 12:33 50.83242 -0.29876 9 ft 1 kts 84°
2026-05-07 12:33 50.83246 -0.29854 9 ft 2 kts 70°
2026-05-07 12:33 50.83262 -0.29797 9 ft 11 kts 65°
2026-05-07 12:34 50.83318 -0.29624 9 ft 22 kts 66°
2026-05-07 12:34 50.83389 -0.29397 9 ft 21 kts 63°
2026-05-07 12:34 50.83438 -0.29224 9 ft 13 kts 69°
2026-05-07 12:34 50.83458 -0.29121 9 ft 0 kts 69°
2026-05-07 12:35 50.83459 -0.29115 9 ft 2 kts 73°
2026-05-07 12:35 50.83448 -0.29057 9 ft 10 kts 160°
2026-05-07 12:35 50.83421 -0.29083 9 ft 1 kts 224°
2026-05-07 12:35 50.83420 -0.29079 9 ft 0 kts 66°
2026-05-07 12:36 50.83420 -0.29077 9 ft 1 kts 107°
2026-05-07 12:36 50.83416 -0.29087 9 ft 3 kts 250°
2026-05-07 12:36 50.83412 -0.29105 9 ft 1 kts 247°
2026-05-07 12:37 50.83409 -0.29115 9 ft 0 kts 248°
2026-05-07 12:37 50.83409 -0.29119 9 ft 0 kts 256°
2026-05-07 12:37 50.83418 -0.29131 9 ft 8 kts
2026-05-07 12:38 50.83429 -0.29102 9 ft 0 kts 79°